Weather History for KCPS - March, 2014

Change the Weather History Date:

Thursday, March 13, 2014

  Actual Average Record
Temperature  
Mean Temperature 42 °F -  
Max Temperature 60 °F 51 °F 81 °F (2012)
Min Temperature 25 °F 36 °F 21 °F (1960)
Degree Days  
Heating Degree Days 23    
Moisture  
Dew Point 29 °F    
Average Humidity 62    
Maximum Humidity 92    
Minimum Humidity 38    
Precipitation  
Precipitation 0.00 in - - ()
Sea Level Pressure  
Sea Level Pressure 30.09 in    
Wind  
Wind Speed 7 mph (SSE)    
Max Wind Speed 16 mph    
Max Gust Speed 21 mph    
Visibility 10 miles    
Events      
Averages and records for this station are not official NWS values.
T = Trace of Precipitation, MM = Missing Value Source: NWS Daily Summary

Daily Weather History Graph

Daily Weather History Graph

Search for Another Location

Airport or City:

Trip Planner

Search our weather history database for the weather conditions in past years. The results will help you decide how hot, cold, wet, or windy it might be!

Date:

Astronomy

Mar. 13, 2014 Rise Set
Actual Time 7:14 AM CDT 7:05 PM CDT
Civil Twilight 6:48 AM CDT 7:32 PM CDT
Nautical Twilight 6:17 AM CDT 8:03 PM CDT
Astronomical Twilight 5:46 AM CDT 8:34 PM CDT
Moon 4:33 PM CDT (3/13) 5:20 AM CDT (3/13)
Length of Visible Light 12h 43m
Length of Day
11h 50m
Waxing Gibbous, 91% of the Moon is Illuminated
Mar 13
Waxing Gibbous
Mar 16
Full
Mar 23
Last Quarter
Mar 30
New
Apr 7
First Quarter

Hourly Weather History & Observations

Time (CDT) Temp. Windchill Dew Point Humidity Pressure Visibility Wind Dir Wind Speed Gust Speed Precip Events Conditions
12:53 AM 34.0 °F 25.5 °F 23.0 °F 64% 30.16 in 10.0 mi NNW 11.5 mph - N/A   Clear
1:53 AM 30.9 °F 26.2 °F 23.0 °F 72% 30.16 in 10.0 mi North 4.6 mph - N/A   Clear
2:53 AM 30.0 °F - 24.1 °F 79% 30.16 in 10.0 mi Calm Calm - N/A   Partly Cloudy
3:53 AM 28.0 °F - 23.0 °F 81% 30.15 in 10.0 mi Calm Calm - N/A   Clear
4:53 AM 26.1 °F - 24.1 °F 92% 30.17 in 10.0 mi Calm Calm - N/A   Clear
5:53 AM 26.1 °F - 24.1 °F 92% 30.19 in 10.0 mi Calm Calm - N/A   Clear
6:53 AM 25.0 °F 20.7 °F 23.0 °F 92% 30.19 in 10.0 mi South 3.5 mph - N/A   Clear
7:53 AM 26.1 °F 21.9 °F 23.0 °F 88% 30.20 in 10.0 mi SSE 3.5 mph - N/A   Clear
8:53 AM 32.0 °F 26.4 °F 25.0 °F 75% 30.21 in 10.0 mi SSE 5.8 mph - N/A   Clear
9:53 AM 36.0 °F 28.5 °F 25.0 °F 64% 30.21 in 10.0 mi SSE 10.4 mph - N/A   Clear
10:53 AM 41.0 °F 34.3 °F 28.0 °F 60% 30.18 in 10.0 mi SE 11.5 mph - N/A   Clear
11:53 AM 45.0 °F 39.3 °F 30.0 °F 56% 30.16 in 10.0 mi SSE 11.5 mph 18.4 mph N/A   Clear
12:53 PM 50.0 °F - 30.9 °F 48% 30.12 in 10.0 mi SSE 9.2 mph 18.4 mph N/A   Clear
1:53 PM 53.1 °F - 32.0 °F 45% 30.09 in 10.0 mi SSE 13.8 mph 20.7 mph N/A   Clear
2:53 PM 55.9 °F - 32.0 °F 40% 30.05 in 10.0 mi SE 10.4 mph 18.4 mph N/A   Clear
3:53 PM 59.0 °F - 33.1 °F 38% 30.02 in 10.0 mi SE 12.7 mph - N/A   Clear
4:53 PM 59.0 °F - 33.1 °F 38% 30.00 in 10.0 mi SSE 16.1 mph - N/A   Clear
5:53 PM 57.0 °F - 33.1 °F 40% 29.99 in 10.0 mi SSE 13.8 mph - N/A   Clear
6:53 PM 54.0 °F - 34.0 °F 47% 29.98 in 10.0 mi SE 13.8 mph - N/A   Clear
7:53 PM 51.1 °F - 34.0 °F 52% 29.98 in 10.0 mi SSE 9.2 mph - N/A   Clear
8:53 PM 50.0 °F - 34.0 °F 54% 29.98 in 10.0 mi Variable 3.5 mph - N/A   Clear
9:53 PM 46.0 °F - 34.0 °F 63% 29.97 in 10.0 mi Calm Calm - N/A   Clear
10:53 PM 48.0 °F - 34.0 °F 58% 29.96 in 10.0 mi South 4.6 mph - N/A   Clear
11:53 PM 48.9 °F - 34.0 °F 56% 29.95 in 10.0 mi South 6.9 mph - N/A   Clear